Main page
METAR-TAF:

METAR-TAF

Airports :

Marília Airport

Marília, São Paulo, Brazil

latitude: 22-11-44S, longitude: 049-55-37W, elevation: 647 m

Current weather observation

The report was made 21 hours and 10 minutes ago, at 19:00 UTC
Wind 9 kt from the North/Northeast
Temperature 27°C
Humidity 74%
Pressure 1010 hPa
Visibility 10 km or more
Broken clouds at a height of 4000 ft

METAR: SBML 201900Z 03009KT 9999 BKN040 27/22 Q1010

Time: 13:10 (16:10 UTC)


TAF: missing

Weather observations and forecasts of more than 4000 airports (METAR and TAF reports).

The available stations are represented by yellow and red dots on the map.

Hover mouse over dot to see the name of the station.

Then click to see weather observations and forecasts.

To change the map : click on the green buttons with a black cross to zoom in, on the green button with a dash to zoom out, or on the green arrows for adjacent maps.


METAR-TAF: